period_start,C,m1,H,J0,J1,J2,J3,J4,J5,JA,JB,JC,JD,JJ,JK,JN,#
2017-08-23 00:01:43,0.03,0.60,0.00,23.68,28.02,30.96,13.65,45.15,1003.51,2030.99,3256.18,2933.14,3333.02,599.58,586.57,37.20,0000 0000 0000 0000 000000
2017-08-23 00:06:45,0.01,0.60,0.00,23.69,28.03,30.96,13.72,45.13,1003.44,2030.99,3255.79,2933.00,3332.94,599.80,586.84,37.25,0000 0000 0000 0000 000000
2017-08-23 00:11:47,0.02,0.61,0.00,23.70,28.04,30.96,13.71,45.25,1003.43,2030.98,3255.04,2932.93,3332.14,599.69,586.65,37.30,0000 0000 0000 0000 000000
2017-08-23 00:16:48,0.02,0.61,0.00,23.70,28.05,30.97,13.69,45.22,1003.43,2030.98,3254.75,2932.22,3332.00,600.03,586.98,37.35,0000 0000 0000 0000 000000
2017-08-23 00:21:49,0.02,0.61,0.00,23.70,28.05,30.98,13.76,45.30,1003.25,2030.98,3254.04,2932.01,3331.50,600.38,587.17,37.40,0000 0000 0000 0000 000000
2017-08-23 00:26:50,0.02,0.61,0.00,23.70,28.05,30.98,13.78,45.15,1003.07,2030.98,3253.54,2931.97,3331.03,599.90,586.63,37.46,0000 0000 0000 0000 000000
2017-08-23 00:31:52,0.02,0.61,0.00,23.72,28.05,30.98,13.73,45.26,1003.03,2030.98,3253.02,2931.47,3330.98,599.67,586.44,37.51,0000 0000 0000 0000 000000
2017-08-23 00:36:53,0.03,0.61,0.00,23.73,28.07,30.98,13.81,45.17,1003.03,2030.95,3252.62,2931.03,3330.49,600.18,586.85,37.56,0000 0000 0000 0000 000000
2017-08-23 00:41:55,0.00,0.61,0.00,23.76,28.07,31.00,13.76,45.13,1002.96,2030.94,3252.03,2930.98,3330.01,600.24,586.80,37.61,0000 0000 0000 0000 000000
2017-08-23 00:46:56,0.01,0.61,0.00,23.77,28.07,30.98,13.71,45.17,1002.95,2030.91,3251.72,2930.74,3329.94,599.99,586.49,37.66,0000 0000 0000 0000 000000
2017-08-23 00:51:57,0.01,0.61,0.00,23.78,28.09,31.00,13.65,45.11,1002.94,2030.68,3251.04,2930.08,3329.27,599.79,586.28,37.71,0000 0000 0000 0000 000000
2017-08-23 00:56:59,0.02,0.61,0.00,23.81,28.10,31.02,13.74,45.24,1002.94,2030.71,3250.71,2930.00,3329.01,599.68,586.19,37.76,0000 0000 0000 0000 000000
2017-08-23 01:02:00,-0.01,0.62,0.00,23.82,28.10,31.02,13.73,45.04,1002.94,2030.59,3250.02,2929.90,3328.82,600.16,586.54,37.81,0000 0000 0000 0000 000000
2017-08-23 01:07:01,0.02,0.62,0.00,23.85,28.12,31.06,13.73,45.14,1002.93,2030.29,3249.49,2929.17,3328.06,599.89,586.33,37.86,0000 0000 0000 0000 000000
2017-08-23 01:12:02,0.03,0.62,0.00,23.87,28.12,31.06,13.68,45.14,1002.91,2030.42,3248.95,2929.00,3327.95,599.84,586.19,37.91,0000 0000 0000 0000 000000
2017-08-23 01:17:04,0.01,0.62,0.00,23.89,28.14,31.05,13.70,45.11,1002.90,2030.36,3248.25,2928.91,3327.40,600.14,586.45,37.96,0000 0000 0000 0000 000000
2017-08-23 01:22:05,0.02,0.62,0.00,23.91,28.15,31.06,13.71,45.13,1002.92,2030.15,3247.68,2928.18,3327.00,599.96,586.21,38.01,0000 0000 0000 0000 000000
2017-08-23 01:27:06,0.00,0.62,0.00,23.92,28.16,31.07,13.74,45.23,1002.88,2030.07,3247.05,2928.00,3326.80,600.15,586.25,38.06,0000 0000 0000 0000 000000
2017-08-23 01:32:08,0.02,0.62,0.00,23.95,28.17,31.11,13.72,45.27,1002.85,2030.05,3246.74,2927.91,3326.08,600.08,586.23,38.11,0000 0000 0000 0000 000000
2017-08-23 01:37:09,0.03,0.62,0.00,23.97,28.18,31.09,13.75,45.27,1002.83,2030.02,3245.99,2927.15,3325.79,600.23,586.13,38.16,0000 0000 0000 0000 000000
2017-08-23 01:42:10,0.02,0.62,0.00,23.98,28.20,31.11,13.72,45.21,1002.90,2030.00,3245.24,2926.97,3325.05,600.11,586.21,38.21,0000 0000 0000 0000 000000
2017-08-23 01:47:12,0.03,0.63,0.00,23.99,28.21,31.14,13.71,45.03,1002.94,2030.00,3244.56,2926.38,3324.79,599.90,585.97,38.26,0000 0000 0000 0000 000000
2017-08-23 01:52:13,0.02,0.63,0.00,24.00,28.22,31.14,13.70,45.22,1002.94,2030.00,3243.93,2926.01,3324.10,600.11,586.15,38.31,0000 0000 0000 0000 000000
2017-08-23 01:57:14,0.03,0.63,0.00,24.02,28.24,31.16,13.75,45.38,1002.93,2030.00,3243.21,2925.71,3323.71,600.21,586.22,38.37,0000 0000 0000 0000 000000
2017-08-23 02:02:16,0.03,0.63,0.00,24.03,28.25,31.20,13.71,45.26,1002.94,2029.99,3242.44,2925.03,3323.02,600.17,586.18,38.42,0000 0000 0000 0000 000000
2017-08-23 02:07:17,0.01,0.63,0.00,24.06,28.27,31.21,13.72,45.20,1002.94,2029.98,3241.86,2924.93,3322.50,600.11,585.92,38.47,0000 0000 0000 0000 000000
2017-08-23 02:12:18,0.03,0.63,0.00,24.08,28.28,31.20,13.70,45.21,1002.94,2029.97,3241.05,2924.22,3322.00,599.87,585.79,38.52,0000 0000 0000 0000 000000
2017-08-23 02:17:19,0.03,0.63,0.00,24.10,28.30,31.23,13.68,45.21,1002.94,2029.97,3240.33,2923.99,3321.43,599.92,585.70,38.57,0000 0000 0000 0000 000000
2017-08-23 02:22:21,0.02,0.64,0.00,24.12,28.32,31.24,13.67,45.28,1002.94,2029.94,3239.79,2923.41,3320.99,599.99,585.79,38.62,0000 0000 0000 0000 000000
2017-08-23 02:27:22,0.02,0.64,0.00,24.14,28.33,31.25,13.79,45.30,1002.88,2029.89,3239.01,2923.01,3320.38,600.00,585.77,38.67,0000 0000 0000 0000 000000
2017-08-23 02:32:23,0.02,0.64,0.00,24.15,28.35,31.27,13.73,45.17,1002.60,2029.74,3238.10,2922.65,3319.91,599.96,585.50,38.72,0000 0000 0000 0000 000000
2017-08-23 02:37:24,0.02,0.64,0.00,24.18,28.37,31.29,13.67,45.17,1002.65,2029.53,3237.33,2922.03,3319.13,599.66,585.16,38.77,0000 0000 0000 0000 000000
2017-08-23 02:42:25,0.42,0.65,0.00,24.21,28.39,31.31,13.69,45.19,1002.83,2029.33,3231.76,2918.88,3315.57,599.86,585.50,38.82,0000 0000 0000 0000 000000
2017-08-23 02:47:26,0.18,0.67,0.00,24.23,28.40,31.31,13.72,45.09,1002.78,2029.05,3221.77,2913.03,3309.03,599.87,585.38,38.87,0000 0000 0000 0000 000000
2017-08-23 02:52:28,0.05,0.67,0.00,24.26,28.42,31.33,13.72,45.18,1002.68,2029.01,3220.54,2912.08,3308.04,600.05,585.43,38.92,0000 0000 0000 0000 000000
2017-08-23 02:57:29,0.05,0.68,0.00,24.28,28.44,31.36,13.70,45.02,1002.50,2029.00,3219.43,2911.55,3307.20,600.00,585.23,38.97,0000 0000 0000 0000 000000
2017-08-23 03:02:31,0.04,0.68,0.00,24.31,28.45,31.36,13.67,45.15,1002.49,2029.00,3218.47,2910.88,3306.53,600.06,585.21,39.02,0000 0000 0000 0000 000000
2017-08-23 03:07:32,0.04,0.68,0.00,24.33,28.47,31.37,13.70,45.10,1002.54,2029.00,3217.47,2910.09,3305.90,600.34,585.38,39.07,0000 0000 0000 0000 000000
2017-08-23 03:12:33,0.05,0.68,0.00,24.36,28.50,31.39,13.66,45.08,1002.73,2029.00,3216.38,2909.58,3305.04,599.88,585.11,39.12,0000 0000 0000 0000 000000
2017-08-23 03:17:34,0.03,0.69,0.00,24.40,28.51,31.39,13.64,45.18,1002.68,2028.98,3215.47,2908.97,3304.26,599.94,585.04,39.17,0000 0000 0000 0000 000000
2017-08-23 03:22:36,0.05,0.69,0.00,24.43,28.54,31.40,13.66,45.15,1002.90,2028.98,3214.46,2908.17,3303.56,599.66,584.83,39.22,0000 0000 0000 0000 000000
2017-08-23 03:27:37,0.04,0.69,0.00,24.47,28.56,31.42,13.66,45.01,1002.89,2028.97,3213.33,2907.65,3302.76,599.95,585.03,39.27,0000 0000 0000 0000 000000
2017-08-23 03:32:38,0.02,0.69,0.00,24.49,28.58,31.44,13.71,45.25,1002.88,2028.86,3212.36,2906.98,3301.96,600.01,585.03,39.32,0000 0000 0000 0000 000000
2017-08-23 03:37:39,0.02,0.69,0.00,24.52,28.60,31.47,13.69,45.21,1002.94,2028.62,3211.44,2906.26,3301.13,599.93,584.98,39.38,0000 0000 0000 0000 000000
2017-08-23 03:42:41,-0.00,0.69,0.00,24.54,28.62,31.50,13.65,45.22,1002.95,2028.18,3210.50,2905.96,3300.64,600.06,584.95,39.43,0000 0000 0000 0000 000000
2017-08-23 03:47:42,0.04,0.70,0.00,24.56,28.65,31.52,13.74,45.24,1002.94,2028.07,3209.62,2905.24,3299.98,600.16,584.94,39.48,0000 0000 0000 0000 000000
2017-08-23 03:52:43,0.04,0.70,0.00,24.58,28.66,31.54,13.68,45.08,1002.94,2028.02,3208.52,2904.71,3299.15,600.11,584.99,39.53,0000 0000 0000 0000 000000
2017-08-23 03:57:44,0.04,0.70,0.00,24.60,28.68,31.56,13.71,45.16,1002.91,2028.01,3207.63,2904.00,3298.45,600.49,585.35,39.58,0000 0000 0000 0000 000000
2017-08-23 04:02:46,0.06,0.70,0.00,24.62,28.70,31.57,13.70,45.01,1002.86,2028.01,3206.16,2903.11,3297.40,600.28,584.99,39.63,0000 0000 0000 0000 000000
2017-08-23 04:07:47,0.06,0.71,0.00,24.64,28.72,31.60,13.69,45.08,1002.94,2028.00,3204.75,2902.24,3296.36,600.08,584.91,39.68,0000 0000 0000 0000 000000
2017-08-23 04:12:48,0.07,0.71,0.00,24.67,28.75,31.62,13.66,45.07,1002.94,2028.00,3202.99,2901.31,3295.24,600.19,584.89,39.73,0000 0000 0000 0000 000000
2017-08-23 04:17:49,0.07,0.71,0.00,24.70,28.77,31.65,13.60,45.02,1002.94,2028.00,3201.51,2900.46,3294.10,599.58,584.28,39.78,0000 0000 0000 0000 000000
2017-08-23 04:22:51,0.05,0.72,0.00,24.73,28.79,31.66,13.74,45.25,1002.94,2028.00,3200.04,2899.58,3293.02,600.34,584.93,39.83,0000 0000 0000 0000 000000
2017-08-23 04:27:52,0.05,0.72,0.00,24.76,28.82,31.69,13.63,45.13,1002.95,2027.97,3198.88,2898.72,3292.08,600.12,584.53,39.88,0000 0000 0000 0000 000000
2017-08-23 04:32:53,0.02,0.72,0.00,24.77,28.84,31.70,13.68,45.23,1002.95,2027.81,3197.83,2897.99,3291.23,600.04,584.49,39.93,0000 0000 0000 0000 000000
2017-08-23 04:37:54,0.02,0.72,0.00,24.80,28.87,31.73,13.75,45.23,1002.95,2027.37,3196.73,2897.17,3290.31,600.34,584.58,39.98,0000 0000 0000 0000 000000
2017-08-23 04:42:56,0.05,0.72,0.00,24.83,28.89,31.75,13.65,45.15,1002.95,2027.17,3195.48,2896.50,3289.44,600.20,584.57,40.03,0000 0000 0000 0000 000000
2017-08-23 04:47:57,0.05,0.73,0.00,24.87,28.91,31.76,13.73,45.33,1002.96,2027.05,3194.45,2895.63,3288.56,600.41,584.69,40.08,0000 0000 0000 0000 000000
2017-08-23 04:52:59,0.04,0.73,0.00,24.88,28.94,31.79,13.72,45.37,1002.94,2027.00,3193.25,2894.88,3287.70,600.58,584.80,40.13,0000 0000 0000 0000 000000
2017-08-23 04:58:00,0.04,0.73,0.00,24.91,28.97,31.81,13.70,45.11,1002.94,2026.99,3192.12,2894.06,3286.90,600.11,584.38,40.18,0000 0000 0000 0000 000000
2017-08-23 05:03:02,0.05,0.73,0.00,24.93,29.00,31.81,13.63,45.08,1002.94,2026.98,3190.99,2893.51,3286.00,599.88,584.09,40.23,0000 0000 0000 0000 000000
2017-08-23 05:08:03,0.05,0.74,0.00,24.96,29.01,31.83,13.61,45.08,1002.94,2026.96,3189.70,2892.73,3285.08,600.01,584.17,40.29,0000 0000 0000 0000 000000
2017-08-23 05:13:04,0.03,0.74,0.00,24.98,29.04,31.87,13.64,45.35,1002.94,2026.89,3188.48,2892.02,3284.16,600.11,584.21,40.34,0000 0000 0000 0000 000000
2017-08-23 05:18:05,0.04,0.74,0.00,25.01,29.06,31.88,13.70,45.27,1002.94,2026.69,3187.25,2891.26,3283.24,600.24,584.34,40.39,0000 0000 0000 0000 000000
2017-08-23 05:23:06,0.03,0.74,0.00,25.01,29.09,31.91,13.67,45.29,1002.94,2026.17,3185.79,2890.40,3282.21,600.14,584.14,40.44,0000 0000 0000 0000 000000
2017-08-23 05:28:07,0.06,0.75,0.00,25.02,29.11,31.95,13.61,45.37,1002.94,2026.02,3184.29,2889.45,3281.05,599.81,583.91,40.49,0000 0000 0000 0000 000000
2017-08-23 05:33:09,0.08,0.75,0.00,25.06,29.14,31.96,13.68,45.23,1002.96,2026.02,3182.58,2888.47,3279.79,600.18,584.15,40.54,0000 0000 0000 0000 000000
2017-08-23 05:38:10,0.05,0.75,0.00,25.07,29.16,32.00,13.71,45.38,1002.95,2026.00,3181.25,2887.62,3278.74,599.89,583.86,40.59,0000 0000 0000 0000 000000
2017-08-23 05:43:12,0.07,0.76,0.00,25.08,29.19,32.01,13.68,45.17,1002.96,2026.00,3179.77,2886.67,3277.66,600.05,584.02,40.64,0000 0000 0000 0000 000000
2017-08-23 05:48:13,0.08,0.76,0.00,25.11,29.21,32.07,13.61,45.24,1002.97,2025.99,3177.96,2885.61,3276.37,599.76,583.67,40.69,0000 0000 0000 0000 000000
2017-08-23 05:53:14,0.11,0.77,0.00,25.13,29.24,32.08,13.70,45.01,1002.95,2025.98,3175.46,2884.24,3274.43,600.34,584.16,40.74,0000 0000 0000 0000 000000
2017-08-23 05:58:15,0.11,0.77,0.00,25.14,29.26,32.10,13.73,45.39,1002.95,2025.92,3172.77,2882.67,3272.41,600.46,584.29,40.79,0000 0000 0000 0000 000000
2017-08-23 06:03:17,0.10,0.78,0.00,25.16,29.29,32.12,13.58,45.41,1002.95,2025.77,3170.08,2881.12,3270.33,599.77,583.52,40.84,0000 0000 0000 0000 000000
2017-08-23 06:08:18,0.07,0.78,0.00,25.18,29.31,32.14,13.73,45.21,1002.96,2025.24,3167.30,2879.54,3268.16,600.31,584.03,40.89,0000 0000 0000 0000 000000
2017-08-23 06:13:19,0.10,0.79,0.00,25.19,29.33,32.18,13.61,45.08,1002.95,2025.08,3164.50,2878.07,3266.12,600.03,583.68,40.94,0000 0000 0000 0000 000000
2017-08-23 06:18:21,0.12,0.79,0.00,25.20,29.36,32.22,13.61,45.05,1002.97,2025.01,3161.65,2876.52,3264.01,599.76,583.46,40.99,0000 0000 0000 0000 000000
2017-08-23 06:23:22,0.10,0.80,0.00,25.22,29.38,32.24,13.68,45.06,1002.97,2025.00,3159.21,2875.08,3262.28,600.13,583.80,41.04,0000 0000 0000 0000 000000
2017-08-23 06:28:23,0.12,0.80,0.00,25.24,29.40,32.28,13.64,45.17,1002.99,2025.00,3156.88,2873.64,3260.45,599.81,583.43,41.09,0000 0000 0000 0000 000000
2017-08-23 06:33:25,0.11,0.81,0.00,25.25,29.42,32.29,13.62,45.26,1003.19,2024.99,3154.36,2872.14,3258.58,599.87,583.60,41.15,0000 0000 0000 0000 000000
2017-08-23 06:38:26,0.10,0.81,0.00,25.27,29.45,32.31,13.65,45.04,1003.36,2024.98,3152.10,2870.74,3256.78,600.07,583.85,41.20,0000 0000 0000 0000 000000
2017-08-23 06:43:27,0.09,0.82,0.00,25.29,29.47,32.31,13.63,45.09,1003.41,2024.92,3149.88,2869.47,3255.07,600.23,583.98,41.25,0000 0000 0000 0000 000000
2017-08-23 06:48:29,0.06,0.82,0.00,25.31,29.49,32.33,13.75,45.26,1003.34,2024.65,3147.53,2868.08,3253.24,600.60,584.27,41.30,0000 0000 0000 0000 000000
2017-08-23 06:53:30,0.07,0.83,0.00,25.34,29.51,32.35,13.66,45.02,1003.43,2024.40,3145.54,2866.95,3251.80,600.00,583.71,41.35,0000 0000 0000 0000 000000
2017-08-23 06:58:32,0.06,0.83,0.00,25.32,29.52,32.40,13.68,45.07,1003.43,2024.18,3143.86,2865.96,3250.60,600.55,584.18,41.40,0000 0000 0000 0000 000000
2017-08-23 07:03:33,0.06,0.83,0.00,25.24,29.55,32.48,13.68,45.03,1003.43,2024.07,3142.30,2864.95,3249.47,600.24,584.20,41.45,0000 0000 0000 0000 000000
2017-08-23 07:08:34,0.07,0.84,0.00,25.11,29.55,32.54,13.75,45.10,1003.44,2024.02,3140.54,2863.94,3248.21,600.20,584.26,41.50,0000 0000 0000 0000 000000
2017-08-23 07:13:35,0.06,0.84,0.00,25.02,29.55,32.55,13.72,45.21,1003.45,2024.02,3139.04,2863.04,3247.14,600.09,584.45,41.55,0000 0000 0000 0000 000000
2017-08-23 07:18:37,0.07,0.85,0.00,24.95,29.55,32.52,13.72,45.16,1003.44,2024.02,3137.35,2862.14,3246.04,600.46,584.96,41.60,0000 0000 0000 0000 000000
2017-08-23 07:23:38,0.08,0.85,0.00,24.88,29.53,32.45,13.74,45.19,1003.45,2024.04,3135.64,2861.16,3244.82,600.08,584.61,41.65,0000 0000 0000 0000 000000
2017-08-23 07:28:39,0.07,0.85,0.00,24.84,29.51,32.42,13.70,45.12,1003.45,2024.04,3134.00,2860.17,3243.63,600.17,584.85,41.70,0000 0000 0000 0000 000000
2017-08-23 07:33:41,0.09,0.86,0.00,24.80,29.49,32.32,13.73,45.16,1003.46,2024.14,3132.28,2859.20,3242.44,600.17,584.93,41.75,0000 0000 0000 0000 000000
2017-08-23 07:38:42,0.11,0.86,0.00,24.83,29.46,32.25,13.69,45.03,1003.44,2024.45,3130.56,2858.33,3241.34,600.30,584.95,41.80,0000 0000 0000 0000 000000
2017-08-23 07:43:44,0.10,0.87,0.00,24.88,29.43,32.14,13.67,44.98,1003.44,2024.88,3128.76,2857.32,3240.15,599.74,584.35,41.85,0000 0000 0000 0000 000000
2017-08-23 07:48:45,0.08,0.87,0.00,24.94,29.41,32.05,13.57,45.03,1003.45,2024.96,3127.01,2856.41,3238.89,599.75,584.24,41.90,0000 0000 0000 0000 000000
2017-08-23 07:53:47,0.07,0.88,0.00,25.03,29.39,32.00,13.67,45.17,1003.45,2024.97,3125.39,2855.44,3237.79,599.87,584.23,41.95,0000 0000 0000 0000 000000
2017-08-23 07:58:48,0.08,0.88,0.00,25.05,29.37,31.97,13.66,44.99,1003.58,2024.99,3123.62,2854.40,3236.53,600.06,584.37,42.00,0000 0000 0000 0000 000000
2017-08-23 08:03:49,0.09,0.88,0.00,25.06,29.36,31.83,13.71,44.91,1003.66,2024.99,3121.45,2853.26,3234.98,600.27,584.53,42.05,0000 0000 0000 0000 000000
2017-08-23 08:08:51,0.12,0.89,0.00,25.11,29.35,31.76,13.64,45.06,1003.85,2024.98,3119.01,2851.75,3233.12,600.19,584.58,42.10,0000 0000 0000 0000 000000
2017-08-23 08:13:52,0.11,0.90,0.00,25.15,29.35,31.76,13.66,45.02,1003.92,2024.99,3116.46,2850.30,3231.21,599.96,584.31,42.15,0000 0000 0000 0000 000000
2017-08-23 08:18:53,0.11,0.90,0.00,25.17,29.35,31.80,13.63,45.11,1003.92,2024.99,3114.06,2848.87,3229.45,600.01,584.26,42.21,0000 0000 0000 0000 000000
2017-08-23 08:23:55,0.10,0.91,0.00,25.11,29.35,31.85,13.62,45.05,1003.92,2024.99,3111.91,2847.64,3227.78,599.78,584.22,42.26,0000 0000 0000 0000 000000
2017-08-23 08:28:56,0.08,0.91,0.00,25.02,29.35,31.97,13.69,45.09,1003.93,2024.99,3110.11,2846.50,3226.44,599.98,584.65,42.31,0000 0000 0000 0000 000000
2017-08-23 08:33:57,0.07,0.92,0.00,24.97,29.35,32.05,13.74,45.03,1003.94,2024.99,3108.56,2845.55,3225.30,600.11,584.76,42.36,0000 0000 0000 0000 000000
2017-08-23 08:38:59,0.08,0.92,0.00,24.93,29.34,32.06,13.60,45.05,1003.94,2024.99,3106.89,2844.56,3223.87,599.96,584.83,42.41,0000 0000 0000 0000 000000
2017-08-23 08:44:00,0.09,0.92,0.00,24.90,29.32,32.06,13.71,45.07,1003.99,2024.99,3104.96,2843.33,3222.38,599.84,584.73,42.46,0000 0000 0000 0000 000000
2017-08-23 08:49:01,0.08,0.93,0.00,24.88,29.31,32.05,13.63,44.95,1004.21,2025.01,3103.17,2842.26,3220.98,599.70,584.73,42.51,0000 0000 0000 0000 000000
2017-08-23 08:54:03,0.08,0.93,0.00,24.85,29.30,32.02,13.74,45.17,1004.28,2025.02,3101.44,2841.20,3219.59,600.17,585.26,42.56,0000 0000 0000 0000 000000
2017-08-23 08:59:05,0.08,0.94,0.00,24.83,29.27,31.99,13.74,44.88,1004.25,2025.02,3099.68,2840.04,3218.18,599.63,584.76,42.61,0000 0000 0000 0000 000000
2017-08-23 09:04:06,0.09,0.94,0.00,24.82,29.25,31.94,13.69,45.02,1004.33,2025.12,3097.92,2839.01,3216.75,600.03,585.30,42.66,0000 0000 0000 0000 000000
2017-08-23 09:09:07,0.11,0.95,0.00,24.83,29.23,31.82,13.64,45.02,1004.40,2025.44,3096.40,2837.99,3215.54,599.89,585.09,42.71,0000 0000 0000 0000 000000
2017-08-23 09:14:08,0.08,0.95,0.00,24.84,29.21,31.76,13.65,44.92,1004.40,2025.61,3094.96,2836.98,3214.33,599.66,584.88,42.76,0000 0000 0000 0000 000000
2017-08-23 09:19:10,0.10,0.96,0.00,24.83,29.19,31.72,13.68,44.81,1004.38,2025.71,3093.23,2835.91,3212.88,599.86,585.04,42.81,0000 0000 0000 0000 000000
2017-08-23 09:24:11,0.09,0.96,0.00,24.83,29.16,31.68,13.69,44.83,1004.35,2025.90,3091.57,2834.86,3211.58,600.15,585.37,42.86,0000 0000 0000 0000 000000
2017-08-23 09:29:13,0.09,0.97,0.00,24.81,29.15,31.65,13.73,45.08,1004.38,2025.97,3089.85,2833.77,3210.16,600.06,585.27,42.91,0000 0000 0000 0000 000000
2017-08-23 09:34:14,0.07,0.97,0.00,24.80,29.12,31.62,13.68,44.73,1004.40,2025.96,3088.29,2832.75,3208.82,599.88,585.22,42.96,0000 0000 0000 0000 000000
2017-08-23 09:39:15,0.08,0.98,0.00,24.83,29.10,31.58,13.62,44.83,1004.41,2025.97,3086.65,2831.70,3207.59,600.13,585.41,43.01,0000 0000 0000 0000 000000
2017-08-23 09:44:17,0.07,0.98,0.00,24.85,29.09,31.56,13.62,44.80,1004.41,2025.99,3085.15,2830.73,3206.35,599.94,585.13,43.07,0000 0000 0000 0000 000000
2017-08-23 09:49:18,0.06,0.98,0.00,24.87,29.07,31.52,13.64,44.87,1004.41,2025.99,3083.66,2829.84,3205.18,599.69,584.73,43.12,0000 0000 0000 0000 000000
2017-08-23 09:54:20,0.07,0.99,0.00,24.90,29.05,31.50,13.78,44.84,1004.41,2025.99,3082.10,2828.87,3203.92,600.08,585.24,43.17,0000 0000 0000 0000 000000
2017-08-23 09:59:21,0.07,0.99,0.00,24.94,29.05,31.47,13.62,44.83,1004.42,2025.99,3080.34,2827.90,3202.60,600.14,585.18,43.22,0000 0000 0000 0000 000000
2017-08-23 10:04:23,0.08,1.00,0.00,24.96,29.03,31.46,13.71,44.93,1004.42,2025.99,3078.75,2826.90,3201.36,600.37,585.35,43.27,0000 0000 0000 0000 000000
2017-08-23 10:09:24,0.07,1.00,0.00,24.99,29.02,31.44,13.71,44.96,1004.45,2026.01,3077.22,2825.89,3200.12,600.06,585.04,43.32,0000 0000 0000 0000 000000
2017-08-23 10:14:25,0.06,1.00,0.00,25.03,29.02,31.42,13.69,45.01,1004.63,2026.04,3075.76,2824.92,3198.95,600.28,585.31,43.37,0000 0000 0000 0000 000000
2017-08-23 10:19:27,0.07,1.01,0.00,25.07,29.01,31.40,13.68,44.88,1004.81,2026.03,3074.38,2823.96,3197.79,600.24,585.18,43.42,0000 0000 0000 0000 000000
2017-08-23 10:24:28,0.09,1.01,0.00,25.10,29.00,31.36,13.66,44.88,1004.85,2026.05,3072.68,2822.95,3196.52,600.11,585.13,43.47,0000 0000 0000 0000 000000
2017-08-23 10:29:29,0.07,1.02,0.00,25.12,29.00,31.35,13.64,44.81,1004.87,2026.05,3071.13,2821.93,3195.24,600.01,584.95,43.52,0000 0000 0000 0000 000000
2017-08-23 10:34:31,0.11,1.02,0.00,25.12,29.00,31.37,13.65,44.82,1004.90,2026.02,3069.27,2820.48,3193.45,600.03,585.00,43.57,0000 0000 0000 0000 000000
2017-08-23 10:39:32,0.08,1.02,0.00,25.10,29.00,31.38,13.69,44.83,1004.90,2026.02,3067.68,2819.30,3191.94,600.15,585.09,43.62,0000 0000 0000 0000 000000
2017-08-23 10:44:34,0.07,1.03,0.00,25.10,29.00,31.40,13.58,44.81,1004.90,2026.02,3066.13,2818.23,3190.71,600.02,585.09,43.67,0000 0000 0000 0000 000000
2017-08-23 10:49:35,0.07,1.03,0.00,25.11,29.00,31.41,13.63,44.77,1004.90,2026.02,3064.63,2817.31,3189.54,600.25,585.22,43.72,0000 0000 0000 0000 000000
2017-08-23 10:54:36,0.06,1.04,0.00,25.16,29.00,31.38,13.63,44.80,1004.90,2026.02,3063.21,2816.50,3188.45,600.01,584.91,43.77,0000 0000 0000 0000 000000
2017-08-23 10:59:38,0.05,1.04,0.00,25.20,29.00,31.37,13.66,44.77,1004.90,2026.02,3061.83,2815.79,3187.32,600.08,584.94,43.82,0000 0000 0000 0000 000000
2017-08-23 11:04:39,0.06,1.04,0.00,25.19,29.00,31.38,13.69,44.91,1004.91,2026.01,3060.40,2814.90,3186.26,600.21,584.98,43.87,0000 0000 0000 0000 000000
2017-08-23 11:09:41,0.07,1.05,0.00,25.16,29.00,31.42,13.66,44.92,1004.95,2026.01,3058.90,2814.03,3185.16,600.21,585.13,43.92,0000 0000 0000 0000 000000
2017-08-23 11:14:42,0.07,1.05,0.00,25.14,29.00,31.43,13.68,44.88,1005.06,2026.00,3057.44,2813.15,3184.02,600.20,585.15,43.98,0000 0000 0000 0000 000000
2017-08-23 11:19:43,0.07,1.05,0.00,25.12,29.00,31.45,13.60,44.98,1005.19,2026.00,3056.01,2812.29,3182.89,599.68,584.84,44.03,0000 0000 0000 0000 000000
2017-08-23 11:24:45,0.06,1.06,0.00,25.11,29.00,31.46,13.64,45.08,1005.34,2026.00,3054.71,2811.50,3181.90,600.06,585.25,44.08,0000 0000 0000 0000 000000
2017-08-23 11:29:46,0.04,1.06,0.00,25.10,29.00,31.47,13.62,45.15,1005.37,2026.00,3053.71,2810.87,3181.01,599.51,584.82,44.13,0000 0000 0000 0000 000000
2017-08-23 11:34:47,0.05,1.06,0.00,25.10,29.00,31.46,13.70,45.08,1005.38,2026.00,3052.58,2810.06,3180.12,599.80,585.10,44.18,0000 0000 0000 0000 000000
2017-08-23 11:39:49,0.06,1.06,0.00,25.07,29.00,31.47,13.64,44.92,1005.39,2026.00,3051.52,2809.42,3179.28,600.09,585.40,44.23,0000 0000 0000 0000 000000
2017-08-23 11:44:51,0.03,1.07,0.00,25.07,29.00,31.47,13.66,44.98,1005.39,2026.00,3050.57,2808.89,3178.41,600.12,585.48,44.28,0000 0000 0000 0000 000000
2017-08-23 11:49:52,0.06,1.07,0.00,25.07,29.00,31.47,13.68,44.89,1005.40,2026.00,3049.44,2808.06,3177.44,600.06,585.38,44.33,0000 0000 0000 0000 000000
2017-08-23 11:54:54,0.06,1.07,0.00,25.06,29.00,31.47,13.68,44.88,1005.40,2026.00,3048.34,2807.23,3176.45,599.82,585.29,44.38,0000 0000 0000 0000 000000
2017-08-23 11:59:55,0.05,1.08,0.00,25.06,29.00,31.47,13.65,44.95,1005.39,2026.00,3047.18,2806.50,3175.55,600.22,585.58,44.43,0000 0000 0000 0000 000000
2017-08-23 12:04:57,0.04,1.08,0.00,25.06,29.00,31.47,13.61,45.02,1005.40,2026.00,3045.92,2805.92,3174.67,599.85,585.28,44.48,0000 0000 0000 0000 000000
2017-08-23 12:09:58,0.05,1.08,0.00,25.07,29.00,31.45,13.61,44.91,1005.41,2026.00,3044.90,2805.08,3173.84,599.77,585.02,44.53,0000 0000 0000 0000 000000
2017-08-23 12:14:59,0.05,1.08,0.00,25.07,29.00,31.46,13.65,44.87,1005.50,2025.99,3043.79,2804.53,3172.97,600.05,585.47,44.58,0000 0000 0000 0000 000000
2017-08-23 12:20:00,0.04,1.09,0.00,25.07,29.00,31.46,13.60,44.93,1005.72,2025.99,3042.58,2803.90,3172.08,599.67,585.15,44.63,0000 0000 0000 0000 000000
2017-08-23 12:25:01,0.06,1.09,0.00,25.07,29.00,31.46,13.58,44.91,1005.78,2025.99,3041.27,2803.08,3171.16,599.55,585.17,44.68,0000 0000 0000 0000 000000
2017-08-23 12:30:02,0.06,1.09,0.00,25.08,29.00,31.46,13.72,44.84,1005.78,2025.99,3040.10,2802.31,3170.20,599.62,585.26,44.73,0000 0000 0000 0000 000000
2017-08-23 12:35:04,0.04,1.10,0.00,25.07,29.00,31.46,13.61,44.90,1005.74,2025.99,3039.10,2801.91,3169.48,599.66,585.23,44.78,0000 0000 0000 0000 000000
2017-08-23 12:40:05,0.05,1.10,0.00,25.08,29.00,31.47,13.74,45.02,1005.82,2025.99,3038.02,2801.11,3168.75,600.46,586.02,44.83,0000 0000 0000 0000 000000
2017-08-23 12:45:07,0.03,1.10,0.00,25.08,29.00,31.46,13.75,45.04,1005.87,2025.98,3037.09,2800.72,3168.02,600.29,585.93,44.88,0000 0000 0000 0000 000000
2017-08-23 12:50:08,0.04,1.10,0.00,25.09,29.00,31.46,13.63,44.93,1005.87,2025.98,3036.42,2800.04,3167.35,600.12,585.78,44.94,0000 0000 0000 0000 000000
2017-08-23 12:55:09,0.03,1.10,0.00,25.07,29.00,31.47,13.63,44.94,1005.87,2025.98,3035.69,2799.81,3166.72,599.72,585.29,44.99,0000 0000 0000 0000 000000